,,,PA_Meas_PMT16A,,PR_Meas_QMR101_102,,RH_Meas_QMH101,,SR_Meas_QMS101,,TA_Meas_QMH101,,GenWind,,GenWind,
date,time,status,PA,status,PR,status,RH,status,SR,status,TA,status,DirAvg,status,SpdAvg,
2011-08-30, 00:00:04,VALID,1005.13,VALID,0,INVALID,163.769,VALID,0,VALID,24.1689,VALID,8,VALID,0,
2011-08-30, 00:01:04,VALID,1005.12,VALID,0,INVALID,163.739,VALID,0,VALID,24.1689,VALID,8,VALID,0,
2011-08-30, 00:02:04,VALID,1005.12,VALID,0,INVALID,163.731,VALID,0,VALID,24.1707,VALID,8,VALID,0,
2011-08-30, 00:03:04,VALID,1005.1,VALID,0,INVALID,163.739,VALID,0,VALID,24.13,VALID,8,VALID,0,
2011-08-30, 00:04:04,VALID,1005.1,VALID,0,INVALID,163.754,VALID,0,VALID,24.1513,VALID,8,VALID,0,
2011-08-30, 00:05:04,VALID,1005.1,VALID,0,INVALID,163.762,VALID,0,VALID,24.13,VALID,8,VALID,0,
2011-08-30, 00:06:04,VALID,1005.07,VALID,0,INVALID,163.754,VALID,0,VALID,24.1494,VALID,8,VALID,0,
2011-08-30, 00:07:04,VALID,1005.07,VALID,0,INVALID,163.731,VALID,0,VALID,24.1902,VALID,8,VALID,0,
2011-08-30, 00:08:04,VALID,1005.05,VALID,0,INVALID,163.731,VALID,0,VALID,24.2291,VALID,8,VALID,0,
2011-08-30, 00:09:04,VALID,1005,VALID,0,INVALID,163.754,VALID,0,VALID,24.2681,VALID,8,VALID,0,
2011-08-30, 00:10:04,VALID,1005.03,VALID,0,INVALID,163.739,VALID,0,VALID,24.2857,VALID,8,VALID,0,
2011-08-30, 00:11:04,VALID,1004.99,VALID,0,INVALID,163.731,VALID,0,VALID,24.3246,VALID,7,VALID,0,
2011-08-30, 00:12:04,VALID,1004.98,VALID,0,INVALID,163.754,VALID,0,VALID,24.3849,VALID,350,VALID,0,
2011-08-30, 00:13:04,VALID,1004.95,VALID,0,INVALID,163.701,VALID,0,VALID,24.4043,VALID,336,VALID,0,
2011-08-30, 00:14:04,VALID,1004.92,VALID,0,INVALID,163.716,VALID,0,VALID,24.4025,VALID,336,VALID,0,
2011-08-30, 00:15:04,VALID,1004.89,VALID,0,INVALID,163.731,VALID,0,VALID,24.422,VALID,349,VALID,0,
2011-08-30, 00:16:04,VALID,1004.88,VALID,0,INVALID,163.708,VALID,0.100563,VALID,24.4025,VALID,349,VALID,0,
2011-08-30, 00:17:04,VALID,1004.86,VALID,0,INVALID,163.723,VALID,0.100563,VALID,24.4025,VALID,349,VALID,0,
2011-08-30, 00:18:04,VALID,1004.86,VALID,0,INVALID,163.754,VALID,0.100563,VALID,24.3617,VALID,349,VALID,0,
2011-08-30, 00:19:04,VALID,1004.85,VALID,0,INVALID,163.723,VALID,0.100563,VALID,24.4006,VALID,340,VALID,0,
2011-08-30, 00:20:04,VALID,1004.84,VALID,0,INVALID,163.731,VALID,0,VALID,24.4201,VALID,359,VALID,0,
2011-08-30, 00:21:04,VALID,1004.85,VALID,0,INVALID,163.731,VALID,0,VALID,24.4804,VALID,358,VALID,0,
2011-08-30, 00:22:04,VALID,1004.85,VALID,0,INVALID,163.716,VALID,0.100563,VALID,24.4998,VALID,358,VALID,0,
2011-08-30, 00:23:04,VALID,1004.86,VALID,0,INVALID,163.693,VALID,0.100563,VALID,24.4998,VALID,358,VALID,0,
2011-08-30, 00:24:04,VALID,1004.85,VALID,0,INVALID,163.701,VALID,0,VALID,24.5193,VALID,348,VALID,0,
2011-08-30, 00:25:04,VALID,1004.86,VALID,0,INVALID,163.716,VALID,0,VALID,24.5174,VALID,341,VALID,0,
2011-08-30, 00:26:04,VALID,1004.82,VALID,0,INVALID,163.746,VALID,0,VALID,24.5388,VALID,341,VALID,0,
2011-08-30, 00:27:04,VALID,1004.81,VALID,0,INVALID,163.754,VALID,0.100563,VALID,24.5582,VALID,341,VALID,0,
2011-08-30, 00:28:04,VALID,1004.83,VALID,0,INVALID,163.731,VALID,0.100563,VALID,24.5388,VALID,341,VALID,0,
2011-08-30, 00:29:04,VALID,1004.83,VALID,0,INVALID,163.716,VALID,0,VALID,24.5388,VALID,341,VALID,0,
2011-08-30, 00:30:04,VALID,1004.85,VALID,0,INVALID,163.716,VALID,0.100563,VALID,24.5174,VALID,341,VALID,0,
2011-08-30, 00:31:04,VALID,1004.85,VALID,0,INVALID,163.731,VALID,0.100563,VALID,24.5582,VALID,341,VALID,0,
2011-08-30, 00:32:04,VALID,1004.8,VALID,0,INVALID,163.708,VALID,0.100563,VALID,24.5369,VALID,341,VALID,0,
2011-08-30, 00:33:04,VALID,1004.8,VALID,0,INVALID,163.701,VALID,0.100563,VALID,24.5388,VALID,341,VALID,0,
2011-08-30, 00:34:04,VALID,1004.79,VALID,0,INVALID,163.731,VALID,0,VALID,24.5388,VALID,341,VALID,0,
2011-08-30, 00:35:04,VALID,1004.81,VALID,0,INVALID,163.716,VALID,0.100563,VALID,24.5582,VALID,341,VALID,0,
2011-08-30, 00:36:04,VALID,1004.82,VALID,0,INVALID,163.723,VALID,0.100563,VALID,24.5174,VALID,341,VALID,0,
2011-08-30, 00:37:04,VALID,1004.82,VALID,0,INVALID,163.739,VALID,0.100563,VALID,24.5174,VALID,341,VALID,0,
2011-08-30, 00:38:04,VALID,1004.76,VALID,0,INVALID,163.716,VALID,0,VALID,24.5193,VALID,341,VALID,0,
2011-08-30, 00:39:04,VALID,1004.77,VALID,0,INVALID,163.716,VALID,0.100563,VALID,24.4785,VALID,341,VALID,0,
2011-08-30, 00:40:04,VALID,1004.74,VALID,0,INVALID,163.708,VALID,0,VALID,24.4609,VALID,341,VALID,0,
2011-08-30, 00:41:04,VALID,1004.75,VALID,0,INVALID,163.731,VALID,0.100563,VALID,24.4414,VALID,341,VALID,0,
2011-08-30, 00:42:04,VALID,1004.74,VALID,0,INVALID,163.716,VALID,0.100563,VALID,24.4006,VALID,341,VALID,0,
2011-08-30, 00:43:04,VALID,1004.71,VALID,0,INVALID,163.739,VALID,0.100563,VALID,24.383,VALID,341,VALID,0,
2011-08-30, 00:44:04,VALID,1004.72,VALID,0,INVALID,163.716,VALID,0.100563,VALID,24.3441,VALID,341,VALID,0,
2011-08-30, 00:45:04,VALID,1004.7,VALID,0,INVALID,163.746,VALID,0.100563,VALID,24.3033,VALID,341,VALID,0,
2011-08-30, 00:46:04,VALID,1004.65,VALID,0,INVALID,163.762,VALID,0,VALID,24.2644,VALID,341,VALID,0,
2011-08-30, 00:47:04,VALID,1004.61,VALID,0,INVALID,163.746,VALID,0.100563,VALID,24.2449,VALID,341,VALID,0,
2011-08-30, 00:48:04,VALID,1004.62,VALID,0,INVALID,163.746,VALID,0,VALID,24.2273,VALID,341,VALID,0,
2011-08-30, 00:49:04,VALID,1004.59,VALID,0,INVALID,163.731,VALID,0,VALID,24.1884,VALID,341,VALID,0,
2011-08-30, 00:50:04,VALID,1004.62,VALID,0,INVALID,163.739,VALID,0,VALID,24.1689,VALID,341,VALID,0,
2011-08-30, 00:51:04,VALID,1004.62,VALID,0,INVALID,163.739,VALID,0,VALID,24.1494,VALID,341,VALID,0,
2011-08-30, 00:52:04,VALID,1004.61,VALID,0,INVALID,163.746,VALID,0,VALID,24.13,VALID,341,VALID,0,
2011-08-30, 00:53:04,VALID,1004.62,VALID,0,INVALID,163.731,VALID,0,VALID,24.13,VALID,341,VALID,0,
2011-08-30, 00:54:04,VALID,1004.6,VALID,0,INVALID,163.739,VALID,0.100563,VALID,24.13,VALID,341,VALID,0,
2011-08-30, 00:55:04,VALID,1004.59,VALID,0,INVALID,163.754,VALID,0,VALID,24.1087,VALID,341,VALID,0,
2011-08-30, 00:56:04,VALID,1004.61,VALID,0,INVALID,163.754,VALID,0.100563,VALID,24.1087,VALID,341,VALID,0,
2011-08-30, 00:57:04,VALID,1004.6,VALID,0,INVALID,163.762,VALID,0,VALID,24.0892,VALID,341,VALID,0,
2011-08-30, 00:58:04,VALID,1004.56,VALID,0,INVALID,163.769,VALID,0,VALID,24.13,VALID,341,VALID,0,
2011-08-30, 00:59:04,VALID,1004.58,VALID,0,INVALID,163.754,VALID,0.100563,VALID,24.1105,VALID,341,VALID,0,
2011-08-30, 01:00:04,VALID,1004.56,VALID,0,INVALID,163.8,VALID,0,VALID,24.091,VALID,341,VALID,0,
2011-08-30, 01:01:04,VALID,1004.55,VALID,0,INVALID,163.762,VALID,0.100563,VALID,24.0892,VALID,341,VALID,0,
2011-08-30, 01:02:04,VALID,1004.52,VALID,0,INVALID,163.762,VALID,0.100563,VALID,24.091,VALID,341,VALID,0,
2011-08-30, 01:03:04,VALID,1004.49,VALID,0,INVALID,163.754,VALID,0.100563,VALID,24.0503,VALID,341,VALID,0,
2011-08-30, 01:04:04,VALID,1004.46,VALID,0,INVALID,163.762,VALID,0.100563,VALID,24.0503,VALID,341,VALID,0,
2011-08-30, 01:05:04,VALID,1004.43,VALID,0,INVALID,163.754,VALID,0,VALID,24.0503,VALID,341,VALID,0,
2011-08-30, 01:06:04,VALID,1004.41,VALID,0,INVALID,163.769,VALID,0.100563,VALID,24.0892,VALID,341,VALID,0,
2011-08-30, 01:07:04,VALID,1004.4,VALID,0,INVALID,163.762,VALID,0.100563,VALID,24.1087,VALID,341,VALID,0,
2011-08-30, 01:08:04,VALID,1004.4,VALID,0,INVALID,163.754,VALID,0,VALID,24.1476,VALID,341,VALID,0,
2011-08-30, 01:09:04,VALID,1004.38,VALID,0,INVALID,163.739,VALID,0,VALID,24.1689,VALID,341,VALID,0,
2011-08-30, 01:10:04,VALID,1004.4,VALID,0,INVALID,163.754,VALID,0,VALID,24.1884,VALID,341,VALID,0,
2011-08-30, 01:11:04,VALID,1004.37,VALID,0,INVALID,163.754,VALID,0.100563,VALID,24.206,VALID,340,VALID,0,
2011-08-30, 01:12:04,VALID,1004.37,VALID,0,INVALID,163.716,VALID,0.100563,VALID,24.2255,VALID,339,VALID,0,
2011-08-30, 01:13:04,VALID,1004.37,VALID,0,INVALID,163.723,VALID,0.100563,VALID,24.2662,VALID,338,VALID,0,
2011-08-30, 01:14:04,VALID,1004.37,VALID,0,INVALID,163.739,VALID,0,VALID,24.2644,VALID,338,VALID,0,
2011-08-30, 01:15:04,VALID,1004.38,VALID,0,INVALID,163.754,VALID,0.100563,VALID,24.3052,VALID,338,VALID,0,
2011-08-30, 01:16:04,VALID,1004.4,VALID,0,INVALID,163.754,VALID,0,VALID,24.2839,VALID,338,VALID,0,
2011-08-30, 01:17:04,VALID,1004.39,VALID,0,INVALID,163.762,VALID,0,VALID,24.2839,VALID,338,VALID,0,
2011-08-30, 01:18:04,VALID,1004.37,VALID,0,INVALID,163.716,VALID,0.100563,VALID,24.3246,VALID,338,VALID,0,
2011-08-30, 01:19:04,VALID,1004.34,VALID,0,INVALID,163.723,VALID,0.100563,VALID,24.3441,VALID,338,VALID,0,
2011-08-30, 01:20:04,VALID,1004.34,VALID,0,INVALID,163.723,VALID,0.100563,VALID,24.3422,VALID,338,VALID,0,
2011-08-30, 01:21:04,VALID,1004.32,VALID,0,INVALID,163.746,VALID,0,VALID,24.3422,VALID,338,VALID,0,
2011-08-30, 01:22:04,VALID,1004.3,VALID,0,INVALID,163.731,VALID,0,VALID,24.383,VALID,338,VALID,0,
2011-08-30, 01:23:04,VALID,1004.31,VALID,0,INVALID,163.723,VALID,0.100563,VALID,24.422,VALID,346,VALID,0,
2011-08-30, 01:24:04,VALID,1004.25,VALID,0,INVALID,163.754,VALID,0,VALID,24.3812,VALID,358,VALID,0,
2011-08-30, 01:25:04,VALID,1004.28,VALID,0,INVALID,163.731,VALID,0.100563,VALID,24.4201,VALID,358,VALID,0,
2011-08-30, 01:26:04,VALID,1004.29,VALID,0,INVALID,163.731,VALID,0.100563,VALID,24.4414,VALID,358,VALID,0,
2011-08-30, 01:27:04,VALID,1004.29,VALID,0,INVALID,163.723,VALID,0.100563,VALID,24.4396,VALID,347,VALID,0,
2011-08-30, 01:28:04,VALID,1004.29,VALID,0,INVALID,163.701,VALID,0,VALID,24.4785,VALID,349,VALID,0,
2011-08-30, 01:29:04,VALID,1004.29,VALID,0,INVALID,163.754,VALID,0,VALID,24.498,VALID,349,VALID,0,
2011-08-30, 01:30:04,VALID,1004.26,VALID,0,INVALID,163.723,VALID,0,VALID,24.5406,VALID,349,VALID,0,
2011-08-30, 01:31:04,VALID,1004.25,VALID,0,INVALID,163.701,VALID,0,VALID,24.5193,VALID,349,VALID,0,
2011-08-30, 01:32:04,VALID,1004.25,VALID,0,INVALID,163.723,VALID,0,VALID,24.4998,VALID,349,VALID,0,
2011-08-30, 01:33:04,VALID,1004.26,VALID,0,INVALID,163.746,VALID,0.100563,VALID,24.4396,VALID,349,VALID,0,
2011-08-30, 01:34:04,VALID,1004.27,VALID,0,INVALID,163.739,VALID,0,VALID,24.422,VALID,349,VALID,0,
2011-08-30, 01:35:04,VALID,1004.28,VALID,0,INVALID,163.731,VALID,0,VALID,24.4025,VALID,349,VALID,0,
2011-08-30, 01:36:04,VALID,1004.3,VALID,0,INVALID,163.731,VALID,0,VALID,24.383,VALID,351,VALID,0,
2011-08-30, 01:37:04,VALID,1004.26,VALID,0,INVALID,163.723,VALID,0.100563,VALID,24.3654,VALID,356,VALID,0,
2011-08-30, 01:38:04,VALID,1004.25,VALID,0,INVALID,163.746,VALID,0,VALID,24.3441,VALID,351,VALID,0,
2011-08-30, 01:39:04,VALID,1004.22,VALID,0,INVALID,163.723,VALID,0.100563,VALID,24.3246,VALID,351,VALID,0,
2011-08-30, 01:40:04,VALID,1004.22,VALID,0,INVALID,163.731,VALID,0,VALID,24.3441,VALID,352,VALID,0,
2011-08-30, 01:41:04,VALID,1004.19,VALID,0,INVALID,163.762,VALID,0,VALID,24.383,VALID,346,VALID,0,
2011-08-30, 01:42:04,VALID,1004.21,VALID,0,INVALID,163.708,VALID,0.100563,VALID,24.4025,VALID,346,VALID,0,
2011-08-30, 01:43:04,VALID,1004.19,VALID,0,INVALID,163.723,VALID,0,VALID,24.4201,VALID,347,VALID,0,
2011-08-30, 01:44:04,VALID,1004.2,VALID,0,INVALID,163.723,VALID,0.100563,VALID,24.4414,VALID,348,VALID,0,
2011-08-30, 01:45:04,VALID,1004.22,VALID,0,INVALID,163.731,VALID,0.100563,VALID,24.4396,VALID,348,VALID,0,
2011-08-30, 01:46:04,VALID,1004.2,VALID,0,INVALID,163.731,VALID,0,VALID,24.4822,VALID,353,VALID,0,
2011-08-30, 01:47:04,VALID,1004.2,VALID,0,INVALID,163.708,VALID,0,VALID,24.4998,VALID,339,VALID,0,
2011-08-30, 01:48:04,VALID,1004.21,VALID,0,INVALID,163.708,VALID,0,VALID,24.5388,VALID,343,VALID,0,
2011-08-30, 01:49:04,VALID,1004.24,VALID,0,INVALID,163.723,VALID,0,VALID,24.5369,VALID,339,VALID,0,
2011-08-30, 01:50:04,VALID,1004.21,VALID,0,INVALID,163.716,VALID,0,VALID,24.5953,VALID,346,VALID,0,
2011-08-30, 01:51:04,VALID,1004.23,VALID,0,INVALID,163.701,VALID,0,VALID,24.6556,VALID,344,VALID,0,
2011-08-30, 01:52:04,VALID,1004.21,VALID,0,INVALID,163.716,VALID,0,VALID,24.675,VALID,350,VALID,0,
2011-08-30, 01:53:04,VALID,1004.19,VALID,0,INVALID,163.739,VALID,0,VALID,24.6945,VALID,345,VALID,0,
2011-08-30, 01:54:04,VALID,1004.18,VALID,0,INVALID,163.701,VALID,0.100563,VALID,24.6945,VALID,4,VALID,0,
2011-08-30, 01:55:04,VALID,1004.19,VALID,0,INVALID,163.67,VALID,0,VALID,24.6732,VALID,4,VALID,0,
2011-08-30, 01:56:04,VALID,1004.15,VALID,0,INVALID,163.678,VALID,0,VALID,24.6556,VALID,3,VALID,0,
2011-08-30, 01:57:04,VALID,1004.14,VALID,0,INVALID,163.746,VALID,0,VALID,24.6166,VALID,342,VALID,0,
2011-08-30, 01:58:04,VALID,1004.11,VALID,0,INVALID,163.716,VALID,0,VALID,24.6185,VALID,343,VALID,0,
2011-08-30, 01:59:04,VALID,1004.1,VALID,0,INVALID,163.708,VALID,0,VALID,24.6166,VALID,343,VALID,0,
2011-08-30, 02:00:04,VALID,1004.1,VALID,0,INVALID,163.708,VALID,0,VALID,24.6166,VALID,344,VALID,0,
2011-08-30, 02:01:04,VALID,1004.11,VALID,0,INVALID,163.716,VALID,0,VALID,24.6166,VALID,349,VALID,0,
2011-08-30, 02:02:04,VALID,1004.1,VALID,0,INVALID,163.716,VALID,0,VALID,24.638,VALID,340,VALID,0,
2011-08-30, 02:03:04,VALID,1004.11,VALID,0,INVALID,163.716,VALID,0,VALID,24.6148,VALID,349,VALID,0,
2011-08-30, 02:04:04,VALID,1004.11,VALID,0,INVALID,163.708,VALID,0,VALID,24.6342,VALID,350,VALID,0,
2011-08-30, 02:05:04,VALID,1004.13,VALID,0,INVALID,163.716,VALID,0,VALID,24.6788,VALID,341,VALID,0,
2011-08-30, 02:06:04,VALID,1004.12,VALID,0,INVALID,163.701,VALID,0,VALID,24.6361,VALID,11,VALID,0,
2011-08-30, 02:07:04,VALID,1004.1,VALID,0,INVALID,163.708,VALID,0,VALID,24.6556,VALID,358,VALID,0,
2011-08-30, 02:08:04,VALID,1004.08,VALID,0,INVALID,163.723,VALID,0,VALID,24.6361,VALID,347,VALID,0,
2011-08-30, 02:09:04,VALID,1004.06,VALID,0,INVALID,163.731,VALID,0,VALID,24.6361,VALID,347,VALID,0,
2011-08-30, 02:10:04,VALID,1004.05,VALID,0,INVALID,163.708,VALID,0.100563,VALID,24.6148,VALID,347,VALID,0,
2011-08-30, 02:11:04,VALID,1004.04,VALID,0,INVALID,163.708,VALID,0,VALID,24.6166,VALID,347,VALID,0,
2011-08-30, 02:12:04,VALID,1004.04,VALID,0,INVALID,163.708,VALID,0,VALID,24.6166,VALID,347,VALID,0,
2011-08-30, 02:13:04,VALID,1004.04,VALID,0,INVALID,163.739,VALID,0,VALID,24.6166,VALID,350,VALID,0,
2011-08-30, 02:14:04,VALID,1004.06,VALID,0,INVALID,163.716,VALID,0,VALID,24.638,VALID,350,VALID,0,
2011-08-30, 02:15:04,VALID,1004.04,VALID,0,INVALID,163.693,VALID,0,VALID,24.6166,VALID,350,VALID,0,
2011-08-30, 02:16:04,VALID,1004.07,VALID,0,INVALID,163.739,VALID,0,VALID,24.6166,VALID,347,VALID,0,
2011-08-30, 02:17:04,VALID,1004.07,VALID,0,INVALID,163.685,VALID,0,VALID,24.5972,VALID,347,VALID,0,
2011-08-30, 02:18:04,VALID,1004.13,VALID,0,INVALID,163.708,VALID,0,VALID,24.6185,VALID,347,VALID,0,
2011-08-30, 02:19:04,VALID,1004.13,VALID,0,INVALID,163.754,VALID,0,VALID,24.6166,VALID,345,VALID,0,
2011-08-30, 02:20:04,VALID,1004.17,VALID,0,INVALID,163.708,VALID,0,VALID,24.6166,VALID,347,VALID,0,
2011-08-30, 02:21:04,VALID,1004.18,VALID,0,INVALID,163.693,VALID,0,VALID,24.6556,VALID,334,VALID,0,
2011-08-30, 02:22:04,VALID,1004.2,VALID,0,INVALID,163.708,VALID,0,VALID,24.6769,VALID,340,VALID,0,
2011-08-30, 02:23:04,VALID,1004.22,VALID,0,INVALID,163.685,VALID,0,VALID,24.6769,VALID,349,VALID,0,
2011-08-30, 02:24:04,VALID,1004.22,VALID,0,INVALID,163.723,VALID,0,VALID,24.6945,VALID,276,VALID,0,
2011-08-30, 02:25:04,VALID,1004.25,VALID,0,INVALID,163.685,VALID,0,VALID,24.6945,VALID,337,VALID,0,
2011-08-30, 02:26:04,VALID,1004.27,VALID,0,INVALID,163.708,VALID,0,VALID,24.714,VALID,352,VALID,0,
2011-08-30, 02:27:04,VALID,1004.27,VALID,0,INVALID,163.693,VALID,0,VALID,24.714,VALID,339,VALID,0,
2011-08-30, 02:28:04,VALID,1004.29,VALID,0,INVALID,163.701,VALID,0,VALID,24.7335,VALID,337,VALID,0,
2011-08-30, 02:29:04,VALID,1004.32,VALID,0,INVALID,163.685,VALID,0,VALID,24.7335,VALID,348,VALID,0,
2011-08-30, 02:30:04,VALID,1004.35,VALID,0,INVALID,163.685,VALID,0,VALID,24.7743,VALID,337,VALID,0,
2011-08-30, 02:31:04,VALID,1004.37,VALID,0,INVALID,163.693,VALID,0,VALID,24.7724,VALID,337,VALID,0,
2011-08-30, 02:32:04,VALID,1004.4,VALID,0,INVALID,163.693,VALID,0,VALID,24.7743,VALID,341,VALID,0,
2011-08-30, 02:33:04,VALID,1004.39,VALID,0,INVALID,163.701,VALID,0,VALID,24.7529,VALID,344,VALID,0,
2011-08-30, 02:34:04,VALID,1004.39,VALID,0,INVALID,163.693,VALID,0,VALID,24.7937,VALID,344,VALID,0,
2011-08-30, 02:35:04,VALID,1004.39,VALID,0,INVALID,163.685,VALID,0,VALID,24.7724,VALID,337,VALID,0,
2011-08-30, 02:36:04,VALID,1004.38,VALID,0,INVALID,163.701,VALID,0,VALID,24.7724,VALID,353,VALID,0,
2011-08-30, 02:37:04,VALID,1004.35,VALID,0,INVALID,163.693,VALID,0,VALID,24.7919,VALID,353,VALID,0,
2011-08-30, 02:38:04,VALID,1004.33,VALID,0,INVALID,163.678,VALID,0,VALID,24.79,VALID,351,VALID,0,
2011-08-30, 02:39:04,VALID,1004.32,VALID,0,INVALID,163.678,VALID,0,VALID,24.7919,VALID,351,VALID,0,
2011-08-30, 02:40:04,VALID,1004.32,VALID,0,INVALID,163.693,VALID,0.100563,VALID,24.8113,VALID,347,VALID,0,
2011-08-30, 02:41:04,VALID,1004.3,VALID,0,INVALID,163.685,VALID,0,VALID,24.7724,VALID,346,VALID,0,
2011-08-30, 02:42:04,VALID,1004.29,VALID,0,INVALID,163.716,VALID,0,VALID,24.7919,VALID,352,VALID,0,
2011-08-30, 02:43:04,VALID,1004.28,VALID,0,INVALID,163.701,VALID,0,VALID,24.7724,VALID,341,VALID,0,
2011-08-30, 02:44:04,VALID,1004.27,VALID,0,INVALID,163.701,VALID,0,VALID,24.7724,VALID,356,VALID,0,
2011-08-30, 02:45:04,VALID,1004.25,VALID,0,INVALID,163.716,VALID,0.100563,VALID,24.751,VALID,342,VALID,0,
2011-08-30, 02:46:04,VALID,1004.23,VALID,0,INVALID,163.708,VALID,0,VALID,24.7529,VALID,345,VALID,0,
2011-08-30, 02:47:04,VALID,1004.21,VALID,0,INVALID,163.701,VALID,0,VALID,24.751,VALID,352,VALID,0,
2011-08-30, 02:48:04,VALID,1004.15,VALID,0,INVALID,163.701,VALID,0,VALID,24.7316,VALID,334,VALID,0,
2011-08-30, 02:49:04,VALID,1004.11,VALID,0,INVALID,163.685,VALID,0.100563,VALID,24.7724,VALID,352,VALID,0,
2011-08-30, 02:50:04,VALID,1004.1,VALID,0,INVALID,163.685,VALID,0.100563,VALID,24.7529,VALID,343,VALID,0,
2011-08-30, 02:51:04,VALID,1004.05,VALID,0,INVALID,163.693,VALID,0,VALID,24.7548,VALID,341,VALID,0,
2011-08-30, 02:52:04,VALID,1004.05,VALID,0,INVALID,163.685,VALID,0.100563,VALID,24.7529,VALID,356,VALID,0,
2011-08-30, 02:53:04,VALID,1003.99,VALID,0,INVALID,163.716,VALID,0,VALID,24.7529,VALID,21,VALID,0,
2011-08-30, 02:54:04,VALID,1003.99,VALID,0,INVALID,163.716,VALID,0,VALID,24.7529,VALID,330,VALID,0,
2011-08-30, 02:55:04,VALID,1003.95,VALID,0,INVALID,163.678,VALID,0,VALID,24.7121,VALID,354,VALID,0,
2011-08-30, 02:56:04,VALID,1003.94,VALID,0,INVALID,163.685,VALID,0.100563,VALID,24.7316,VALID,300,VALID,0,
2011-08-30, 02:57:04,VALID,1003.99,VALID,0,INVALID,163.723,VALID,0.100563,VALID,24.7316,VALID,344,VALID,0,
2011-08-30, 02:58:04,VALID,1003.98,VALID,0,INVALID,163.716,VALID,0,VALID,24.7529,VALID,355,VALID,0,
2011-08-30, 02:59:04,VALID,1004.06,VALID,0,INVALID,163.701,VALID,0.100563,VALID,24.7121,VALID,269,VALID,0,
2011-08-30, 03:00:04,VALID,1004.07,VALID,0,INVALID,163.701,VALID,0,VALID,24.7316,VALID,222,VALID,0,
2011-08-30, 03:01:04,VALID,1004.1,VALID,0,INVALID,163.701,VALID,0,VALID,24.714,VALID,261,VALID,0,
2011-08-30, 03:02:04,VALID,1004.12,VALID,0,INVALID,163.693,VALID,0,VALID,24.714,VALID,260,VALID,0,
2011-08-30, 03:03:04,VALID,1004.09,VALID,0,INVALID,163.693,VALID,0,VALID,24.675,VALID,356,VALID,0,
2011-08-30, 03:04:04,VALID,1004.05,VALID,0,INVALID,163.678,VALID,0,VALID,24.6964,VALID,335,VALID,0,
2011-08-30, 03:05:04,VALID,1004.06,VALID,0,INVALID,163.708,VALID,0,VALID,24.6945,VALID,331,VALID,0,
2011-08-30, 03:06:04,VALID,1004.02,VALID,0,INVALID,163.708,VALID,0,VALID,24.6945,VALID,299,VALID,0,
2011-08-30, 03:07:04,VALID,1004.01,VALID,0,INVALID,163.708,VALID,0,VALID,24.7353,VALID,279,VALID,0,
2011-08-30, 03:08:04,VALID,1003.96,VALID,0,INVALID,163.723,VALID,0,VALID,24.714,VALID,302,VALID,0,
2011-08-30, 03:09:04,VALID,1003.92,VALID,0,INVALID,163.701,VALID,0,VALID,24.7335,VALID,287,VALID,0,
2011-08-30, 03:10:04,VALID,1003.89,VALID,0,INVALID,163.716,VALID,0,VALID,24.7529,VALID,286,VALID,0,
2011-08-30, 03:11:04,VALID,1003.89,VALID,0,INVALID,163.701,VALID,0.100563,VALID,24.7529,VALID,288,VALID,0,
2011-08-30, 03:12:04,VALID,1003.94,VALID,0,INVALID,163.693,VALID,0,VALID,24.7724,VALID,274,VALID,0,
2011-08-30, 03:13:04,VALID,1004.03,VALID,0,INVALID,163.723,VALID,0,VALID,24.7919,VALID,274,VALID,0,
2011-08-30, 03:14:04,VALID,1004.14,VALID,0,INVALID,163.701,VALID,0,VALID,24.7919,VALID,123,VALID,0,
2011-08-30, 03:15:04,VALID,1004.32,VALID,0,INVALID,163.701,VALID,0,VALID,24.7724,VALID,124,VALID,0,
2011-08-30, 03:16:04,VALID,1004.41,VALID,0,INVALID,163.731,VALID,0,VALID,24.7335,VALID,114,VALID,0,
2011-08-30, 03:17:04,VALID,1004.52,VALID,0,INVALID,163.723,VALID,0,VALID,24.6574,VALID,135,VALID,0,
2011-08-30, 03:18:04,VALID,1004.62,VALID,1,INVALID,163.754,VALID,0,VALID,24.383,VALID,128,VALID,0,
2011-08-30, 03:19:04,VALID,1004.61,VALID,2,INVALID,163.746,VALID,0,VALID,24.091,VALID,120,VALID,0,
2011-08-30, 03:20:04,VALID,1004.54,VALID,2,INVALID,163.762,VALID,0,VALID,23.9159,VALID,84,VALID,0,
2011-08-30, 03:21:04,VALID,1004.49,VALID,1,INVALID,163.792,VALID,0,VALID,23.7796,VALID,100,VALID,0,
2011-08-30, 03:22:04,VALID,1004.47,VALID,1,INVALID,163.8,VALID,0,VALID,23.5868,VALID,69,VALID,0,
2011-08-30, 03:23:04,VALID,1004.43,VALID,1,INVALID,163.777,VALID,0,VALID,23.3921,VALID,82,VALID,0,
2011-08-30, 03:24:04,VALID,1004.45,VALID,0.5,INVALID,163.815,VALID,0,VALID,23.2347,VALID,108,VALID,0,
2011-08-30, 03:25:04,VALID,1004.44,VALID,0.5,INVALID,163.83,VALID,0,VALID,23.1763,VALID,97,VALID,0,
2011-08-30, 03:26:04,VALID,1004.41,VALID,1.5,INVALID,163.83,VALID,0,VALID,23.1957,VALID,122,VALID,0,
2011-08-30, 03:27:04,VALID,1004.45,VALID,1,INVALID,163.784,VALID,0,VALID,23.079,VALID,175,VALID,0,
2011-08-30, 03:28:04,VALID,1004.45,VALID,1,INVALID,163.83,VALID,0,VALID,22.9817,VALID,150,VALID,0,
2011-08-30, 03:29:04,VALID,1004.46,VALID,1,INVALID,163.838,VALID,0,VALID,22.9622,VALID,158,VALID,0,
2011-08-30, 03:30:04,VALID,1004.5,VALID,0.5,INVALID,163.815,VALID,0.100563,VALID,22.9817,VALID,141,VALID,0,
2011-08-30, 03:31:04,VALID,1004.56,VALID,0.5,INVALID,163.838,VALID,0.100563,VALID,23.0206,VALID,132,VALID,0,
2011-08-30, 03:32:04,VALID,1004.59,VALID,0,INVALID,163.815,VALID,0,VALID,23.0984,VALID,134,VALID,0,
2011-08-30, 03:33:04,VALID,1004.6,VALID,0.5,INVALID,163.838,VALID,0,VALID,23.1179,VALID,93,VALID,0,
2011-08-30, 03:34:04,VALID,1004.56,VALID,0.5,INVALID,163.83,VALID,0,VALID,23.1374,VALID,92,VALID,0,
2011-08-30, 03:35:04,VALID,1004.49,VALID,0,INVALID,163.83,VALID,0.100563,VALID,23.0613,VALID,74,VALID,0,
2011-08-30, 03:36:04,VALID,1004.4,VALID,0,INVALID,163.815,VALID,0,VALID,23.0012,VALID,96,VALID,0,
2011-08-30, 03:37:04,VALID,1004.36,VALID,0.5,INVALID,163.807,VALID,0,VALID,22.9817,VALID,95,VALID,0,
2011-08-30, 03:38:04,VALID,1004.31,VALID,0,INVALID,163.815,VALID,0,VALID,22.9622,VALID,38,VALID,0,
2011-08-30, 03:39:04,VALID,1004.24,VALID,0,INVALID,163.845,VALID,0,VALID,22.9622,VALID,291,VALID,0,
2011-08-30, 03:40:04,VALID,1004.21,VALID,0,INVALID,163.83,VALID,0,VALID,22.9817,VALID,290,VALID,0,
2011-08-30, 03:41:04,VALID,1004.21,VALID,0,INVALID,163.823,VALID,0,VALID,22.9817,VALID,287,VALID,0,
2011-08-30, 03:42:04,VALID,1004.22,VALID,0,INVALID,163.83,VALID,0,VALID,23.0012,VALID,287,VALID,0,
2011-08-30, 03:43:04,VALID,1004.22,VALID,0,INVALID,163.838,VALID,0.100563,VALID,22.9605,VALID,287,VALID,0,
2011-08-30, 03:44:04,VALID,1004.2,VALID,0,INVALID,163.83,VALID,0,VALID,22.9622,VALID,287,VALID,0,
2011-08-30, 03:45:04,VALID,1004.2,VALID,0,INVALID,163.838,VALID,0,VALID,22.9445,VALID,287,VALID,0,
2011-08-30, 03:46:04,VALID,1004.15,VALID,0,INVALID,163.823,VALID,0,VALID,22.964,VALID,287,VALID,0,
2011-08-30, 03:47:04,VALID,1004.11,VALID,0,INVALID,163.853,VALID,0,VALID,22.9268,VALID,298,VALID,0,
2011-08-30, 03:48:04,VALID,1004.16,VALID,0,INVALID,163.83,VALID,0,VALID,22.9056,VALID,301,VALID,0,
2011-08-30, 03:49:04,VALID,1004.14,VALID,0,INVALID,163.845,VALID,0,VALID,22.8649,VALID,331,VALID,0,
2011-08-30, 03:50:04,VALID,1004.16,VALID,0,INVALID,163.891,VALID,0,VALID,22.9056,VALID,345,VALID,0,
2011-08-30, 03:51:04,VALID,1004.19,VALID,0,INVALID,163.853,VALID,0,VALID,22.8667,VALID,352,VALID,0,